CDT,Max TemperatureF,Mean TemperatureF,Min TemperatureF,Max Dew PointF,MeanDew PointF,Min DewpointF,Max Humidity, Mean Humidity, Min Humidity, Max Sea Level PressureIn, Mean Sea Level PressureIn, Min Sea Level PressureIn, Max VisibilityMiles, Mean VisibilityMiles, Min VisibilityMiles, Max Wind SpeedMPH, Mean Wind SpeedMPH, Max Gust SpeedMPH,PrecipitationIn, CloudCover, Events, WindDirDegrees
2013-10-1,81,71,61,69,66,62,100,87,62,30.09,30.04,30.01,10,10,10,12,6,,0.00,4,,192
2013-10-2,79,72,64,73,69,64,100,95,74,30.12,30.08,30.04,10,6,1,12,3,,0.01,4,Fog-Rain,171
2013-10-3,84,76,68,71,67,64,100,81,49,30.09,30.03,29.97,10,9,7,15,6,,0.00,3,,166
2013-10-4,86,76,65,73,69,65,100,83,57,30.08,30.03,29.99,10,10,2,13,6,,0.00,3,,167
2013-10-5,81,74,68,75,71,68,100,98,76,30.05,29.97,29.86,10,4,0,18,6,,0.00,7,Fog-Rain-Thunderstorm,159
2013-10-6,69,60,48,70,61,43,100,95,64,29.95,29.87,29.81,10,4,0,18,9,23,0.00,7,Fog-Rain-Thunderstorm,233
2013-10-7,63,54,45,49,46,42,100,77,48,30.17,30.05,29.92,10,10,4,12,5,,0.04,1,,306
2013-10-8,68,56,45,51,46,39,100,70,34,30.24,30.18,30.14,10,10,10,14,5,21,0.00,0,,78
2013-10-9,74,61,48,59,54,46,100,76,55,30.21,30.15,30.12,10,10,10,7,4,,0.00,1,,70
2013-10-10,77,66,54,60,57,54,100,77,46,30.17,30.11,30.06,10,10,7,7,2,,0.00,2,,77
2013-10-11,79,66,52,57,55,52,100,74,42,30.10,30.05,30.00,10,9,6,6,1,,0.02,1,,130
2013-10-12,79,66,52,65,59,53,100,80,52,30.14,30.07,30.03,10,10,10,12,3,,0.00,2,,226
2013-10-13,75,67,57,65,54,44,100,67,38,30.30,30.25,30.14,10,10,10,12,6,,0.00,3,Rain,6
2013-10-14,70,61,52,56,51,44,83,69,57,30.31,30.23,30.12,10,10,8,8,6,,0.00,0,,61
2013-10-15,70,64,57,67,62,55,100,93,76,30.11,30.02,29.94,10,8,4,14,6,,0.00,3,Rain,183
2013-10-16,66,56,47,66,54,48,100,84,60,30.01,29.97,29.92,10,10,6,16,6,25,0.00,6,Rain,293
2013-10-17,59,52,45,49,46,44,100,83,58,30.02,29.99,29.96,10,9,2,10,5,,0.08,4,Rain,308
2013-10-18,68,54,41,51,45,42,100,75,40,30.07,30.01,29.96,10,9,5,10,4,16,0.00,2,,203
2013-10-19,54,46,39,50,44,36,100,87,53,30.06,29.97,29.89,10,8,2,13,5,,0.13,5,Rain,311
2013-10-20,63,50,37,43,40,38,100,76,41,30.10,30.04,30.01,10,10,7,16,7,23,0.00,0,,182
2013-10-21,65,52,39,49,45,39,97,75,48,30.05,30.01,29.96,10,10,8,17,7,17,0.00,3,Rain,234
2013-10-22,57,46,34,45,36,29,100,66,36,30.09,29.98,29.85,10,10,6,10,6,,0.00,3,Rain,229
2013-10-23,48,44,39,45,34,28,87,71,46,30.13,30.02,29.85,10,10,10,21,13,28,0.00,6,,306
2013-10-24,45,38,30,37,30,20,89,69,39,30.39,30.24,30.13,10,10,10,16,6,23,0.00,6,Rain,299
2013-10-25,47,36,25,29,25,21,92,67,35,30.54,30.44,30.33,10,10,10,6,1,,0.00,0,,26
2013-10-26,57,43,29,40,33,25,89,73,42,30.31,30.16,30.04,10,10,8,18,8,25,0.00,3,,207
2013-10-27,59,46,34,43,35,31,96,69,34,30.14,30.10,30.06,10,10,7,6,2,,0.00,1,,345
2013-10-28,66,56,41,44,39,34,93,62,31,30.27,30.19,30.09,10,10,10,7,3,,0.00,2,,45
2013-10-29,59,49,41,59,50,39,100,98,87,30.32,30.26,30.13,10,4,0,9,3,,0.14,7,Fog-Rain,134
2013-10-30,75,67,59,67,63,58,100,89,69,30.14,30.08,30.00,10,8,4,17,9,,0.03,5,Rain,197
2013-10-31,68,62,55,68,62,55,100,95,73,29.97,29.65,29.46,10,7,2,33,15,41,0.34,7,Rain,203